Year,Month,Day,Hour,Minute,Value (Times are PST for temperature in C)
2019,03,18,00,00,5.40
2019,03,18,00,01,5.30
2019,03,18,00,02,5.30
2019,03,18,00,03,5.30
2019,03,18,00,04,5.30
2019,03,18,00,05,5.30
2019,03,18,00,06,5.30
2019,03,18,00,07,5.20
2019,03,18,00,08,5.20
2019,03,18,00,09,5.20
2019,03,18,00,10,5.20
2019,03,18,00,11,5.20
2019,03,18,00,12,5.20
2019,03,18,00,13,5.20
2019,03,18,00,14,5.20
2019,03,18,00,15,5.10
2019,03,18,00,16,5.10
2019,03,18,00,17,5.10
2019,03,18,00,18,5.10
2019,03,18,00,19,5.10
2019,03,18,00,20,5.00
2019,03,18,00,21,5.00
2019,03,18,00,22,5.00
2019,03,18,00,23,5.00
2019,03,18,00,24,4.90
2019,03,18,00,25,4.90
2019,03,18,00,26,4.90
2019,03,18,00,27,4.90
2019,03,18,00,28,4.90
2019,03,18,00,29,4.80
2019,03,18,00,30,4.80
2019,03,18,00,31,4.80
2019,03,18,00,32,4.80
2019,03,18,00,33,4.80
2019,03,18,00,34,4.80
2019,03,18,00,35,4.80
2019,03,18,00,36,4.70
2019,03,18,00,37,4.70
2019,03,18,00,38,4.70
2019,03,18,00,39,4.80
2019,03,18,00,40,4.70
2019,03,18,00,41,4.70
2019,03,18,00,42,4.70
2019,03,18,00,43,4.70
2019,03,18,00,44,4.70
2019,03,18,00,45,4.70
2019,03,18,00,46,4.60
2019,03,18,00,47,4.60
2019,03,18,00,48,4.60
2019,03,18,00,49,4.60
2019,03,18,00,50,4.60
2019,03,18,00,51,4.50
2019,03,18,00,52,4.50
2019,03,18,00,53,4.50
2019,03,18,00,54,4.50
2019,03,18,00,55,4.40
2019,03,18,00,56,4.40
2019,03,18,00,57,4.40
2019,03,18,00,58,4.40
2019,03,18,00,59,4.40
2019,03,18,01,00,4.40
2019,03,18,01,01,4.40
2019,03,18,01,02,4.50
2019,03,18,01,03,4.50
2019,03,18,01,04,4.50
2019,03,18,01,05,4.40
2019,03,18,01,06,4.40
2019,03,18,01,07,4.40
2019,03,18,01,08,4.40
2019,03,18,01,09,4.40
2019,03,18,01,10,4.40
2019,03,18,01,11,4.40
2019,03,18,01,12,4.40
2019,03,18,01,13,4.40
2019,03,18,01,14,4.40
2019,03,18,01,15,4.40
2019,03,18,01,16,4.40
2019,03,18,01,17,4.40
2019,03,18,01,18,4.40
2019,03,18,01,19,4.40
2019,03,18,01,20,4.40
2019,03,18,01,21,4.40
2019,03,18,01,22,4.40
2019,03,18,01,23,4.30
2019,03,18,01,24,4.30
2019,03,18,01,25,4.30
2019,03,18,01,26,4.30
2019,03,18,01,27,4.30
2019,03,18,01,28,4.30
2019,03,18,01,29,4.30
2019,03,18,01,30,4.30
2019,03,18,01,31,4.20
2019,03,18,01,32,4.20
2019,03,18,01,33,4.20
2019,03,18,01,34,4.20
2019,03,18,01,35,4.20
2019,03,18,01,36,4.20
2019,03,18,01,37,4.10
2019,03,18,01,38,4.10
2019,03,18,01,39,4.10
2019,03,18,01,40,4.10
2019,03,18,01,41,4.00
2019,03,18,01,42,4.00
2019,03,18,01,43,4.00
2019,03,18,01,44,4.00
2019,03,18,01,45,4.00
2019,03,18,01,46,4.00
2019,03,18,01,47,4.00
2019,03,18,01,48,3.90
2019,03,18,01,49,3.90
2019,03,18,01,50,3.90
2019,03,18,01,51,3.90
2019,03,18,01,52,3.90
2019,03,18,01,53,3.90
2019,03,18,01,54,3.90
2019,03,18,01,55,3.90
2019,03,18,01,56,3.80
2019,03,18,01,57,3.80
2019,03,18,01,58,3.80
2019,03,18,01,59,3.80
2019,03,18,02,00,3.80
2019,03,18,02,01,3.80
2019,03,18,02,02,3.80
2019,03,18,02,03,3.80
2019,03,18,02,04,3.80
2019,03,18,02,05,3.80
2019,03,18,02,06,3.70
2019,03,18,02,07,3.70
2019,03,18,02,08,3.70
2019,03,18,02,09,3.70
2019,03,18,02,10,3.70
2019,03,18,02,11,3.70
2019,03,18,02,12,3.70
2019,03,18,02,13,3.70
2019,03,18,02,14,3.70
2019,03,18,02,15,3.70
2019,03,18,02,16,3.70
2019,03,18,02,17,3.60
2019,03,18,02,18,3.60
2019,03,18,02,19,3.60
2019,03,18,02,20,3.60
2019,03,18,02,21,3.60
2019,03,18,02,22,3.60
2019,03,18,02,23,3.60
2019,03,18,02,24,3.60
2019,03,18,02,25,3.60
2019,03,18,02,26,3.60
2019,03,18,02,27,3.60
2019,03,18,02,28,3.60
2019,03,18,02,29,3.60
2019,03,18,02,30,3.60
2019,03,18,02,31,3.60
2019,03,18,02,32,3.60
2019,03,18,02,33,3.50
2019,03,18,02,34,3.50
2019,03,18,02,35,3.60
2019,03,18,02,36,3.50
2019,03,18,02,37,3.50
2019,03,18,02,38,3.50
2019,03,18,02,39,3.50
2019,03,18,02,40,3.50
2019,03,18,02,41,3.50
2019,03,18,02,42,3.50
2019,03,18,02,43,3.40
2019,03,18,02,44,3.50
2019,03,18,02,45,3.40
2019,03,18,02,46,3.40
2019,03,18,02,47,3.40
2019,03,18,02,48,3.40
2019,03,18,02,49,3.50
2019,03,18,02,50,3.50
2019,03,18,02,51,3.50
2019,03,18,02,52,3.50
2019,03,18,02,53,3.50
2019,03,18,02,54,3.50
2019,03,18,02,55,3.50
2019,03,18,02,56,3.50
2019,03,18,02,57,3.50
2019,03,18,02,58,3.50
2019,03,18,02,59,3.50
2019,03,18,03,00,3.50
2019,03,18,03,01,3.50
2019,03,18,03,02,3.50
2019,03,18,03,03,3.50
2019,03,18,03,04,3.50
2019,03,18,03,05,3.50
2019,03,18,03,06,3.40
2019,03,18,03,07,3.40
2019,03,18,03,08,3.40
2019,03,18,03,09,3.40
2019,03,18,03,10,3.40
2019,03,18,03,11,3.40
2019,03,18,03,12,3.40
2019,03,18,03,13,3.40
2019,03,18,03,14,3.40
2019,03,18,03,15,3.40
2019,03,18,03,16,3.40
2019,03,18,03,17,3.40
2019,03,18,03,18,3.40
2019,03,18,03,19,3.40
2019,03,18,03,20,3.40
2019,03,18,03,21,3.40
2019,03,18,03,22,3.40
2019,03,18,03,23,3.40
2019,03,18,03,24,3.30
2019,03,18,03,25,3.40
2019,03,18,03,26,3.40
2019,03,18,03,27,3.40
2019,03,18,03,28,3.40
2019,03,18,03,29,3.40
2019,03,18,03,30,3.40
2019,03,18,03,31,3.40
2019,03,18,03,32,3.50
2019,03,18,03,33,3.50
2019,03,18,03,34,3.50
2019,03,18,03,35,3.50
2019,03,18,03,36,3.50
2019,03,18,03,37,3.50
2019,03,18,03,38,3.50
2019,03,18,03,39,3.50
2019,03,18,03,40,3.60
2019,03,18,03,41,3.60
2019,03,18,03,42,3.60
2019,03,18,03,43,3.60
2019,03,18,03,44,3.70
2019,03,18,03,45,3.70
2019,03,18,03,46,3.70
2019,03,18,03,47,3.70
2019,03,18,03,48,3.60
2019,03,18,03,49,3.60
2019,03,18,03,50,3.60
2019,03,18,03,51,3.70
2019,03,18,03,52,4.00
2019,03,18,03,53,4.40
2019,03,18,03,54,4.80
2019,03,18,03,55,5.10
2019,03,18,03,56,5.40
2019,03,18,03,57,5.60
2019,03,18,03,58,5.80
2019,03,18,03,59,6.00
2019,03,18,04,00,6.10
2019,03,18,04,01,6.10
2019,03,18,04,02,6.10
2019,03,18,04,03,6.00
2019,03,18,04,04,6.00
2019,03,18,04,05,5.90
2019,03,18,04,06,5.80
2019,03,18,04,07,5.90
2019,03,18,04,08,6.10
2019,03,18,04,09,6.20
2019,03,18,04,10,6.40
2019,03,18,04,11,6.50
2019,03,18,04,12,6.60
2019,03,18,04,13,6.80
2019,03,18,04,14,6.90
2019,03,18,04,15,6.90
2019,03,18,04,16,7.00
2019,03,18,04,17,7.00
2019,03,18,04,18,7.00
2019,03,18,04,19,7.10
2019,03,18,04,20,7.10
2019,03,18,04,21,7.10
2019,03,18,04,22,7.10
2019,03,18,04,23,7.10
2019,03,18,04,24,7.20
2019,03,18,04,25,7.20
2019,03,18,04,26,7.20
2019,03,18,04,27,7.20
2019,03,18,04,28,7.20
2019,03,18,04,29,7.20
2019,03,18,04,30,7.20
2019,03,18,04,31,7.20
2019,03,18,04,32,7.20
2019,03,18,04,33,7.20
2019,03,18,04,34,7.10
2019,03,18,04,35,7.10
2019,03,18,04,36,7.10
2019,03,18,04,37,7.10
2019,03,18,04,38,7.10
2019,03,18,04,39,7.10
2019,03,18,04,40,7.10
2019,03,18,04,41,7.10
2019,03,18,04,42,7.20
2019,03,18,04,43,7.20
2019,03,18,04,44,7.10
2019,03,18,04,45,7.10
2019,03,18,04,46,7.10
2019,03,18,04,47,7.10
2019,03,18,04,48,7.10
2019,03,18,04,49,7.10
2019,03,18,04,50,7.10
2019,03,18,04,51,7.10
2019,03,18,04,52,7.10
2019,03,18,04,53,7.10
2019,03,18,04,54,7.00
2019,03,18,04,55,7.00
2019,03,18,04,56,7.10
2019,03,18,04,57,7.00
2019,03,18,04,58,7.00
2019,03,18,04,59,7.00
2019,03,18,05,00,7.00
2019,03,18,05,01,7.00
2019,03,18,05,02,7.00
2019,03,18,05,03,7.00
2019,03,18,05,04,7.10
2019,03,18,05,05,7.10
2019,03,18,05,06,7.10
2019,03,18,05,07,7.10
2019,03,18,05,08,7.20
2019,03,18,05,09,7.30
2019,03,18,05,10,7.30
2019,03,18,05,11,7.30
2019,03,18,05,12,7.30
2019,03,18,05,13,7.20
2019,03,18,05,14,7.20
2019,03,18,05,15,7.10
2019,03,18,05,16,7.10
2019,03,18,05,17,7.10
2019,03,18,05,18,7.10
2019,03,18,05,19,7.00
2019,03,18,05,20,7.00
2019,03,18,05,21,6.90
2019,03,18,05,22,6.90
2019,03,18,05,23,6.90
2019,03,18,05,24,6.90
2019,03,18,05,25,6.90
2019,03,18,05,26,6.90
2019,03,18,05,27,6.90
2019,03,18,05,28,7.00
2019,03,18,05,29,7.00
2019,03,18,05,30,7.00
2019,03,18,05,31,7.00
2019,03,18,05,32,7.10
2019,03,18,05,33,7.00
2019,03,18,05,34,7.00
2019,03,18,05,35,7.00
2019,03,18,05,36,7.00
2019,03,18,05,37,7.00
2019,03,18,05,38,7.10
2019,03,18,05,39,7.10
2019,03,18,05,40,7.10
2019,03,18,05,41,7.10
2019,03,18,05,42,7.00
2019,03,18,05,43,7.00
2019,03,18,05,44,6.90
2019,03,18,05,45,6.90
2019,03,18,05,46,6.90
2019,03,18,05,47,6.90
2019,03,18,05,48,6.90
2019,03,18,05,49,6.90
2019,03,18,05,50,6.90
2019,03,18,05,51,6.80
2019,03,18,05,52,6.80
2019,03,18,05,53,6.80
2019,03,18,05,54,6.80
2019,03,18,05,55,6.80
2019,03,18,05,56,6.80
2019,03,18,05,57,6.80
2019,03,18,05,58,6.80
2019,03,18,05,59,6.80
2019,03,18,06,00,6.80
2019,03,18,06,01,6.70
2019,03,18,06,02,6.70
2019,03,18,06,03,6.70
2019,03,18,06,04,6.70
2019,03,18,06,05,6.60
2019,03,18,06,06,6.70
2019,03,18,06,07,6.70
2019,03,18,06,08,6.70
2019,03,18,06,09,6.70
2019,03,18,06,10,6.60
2019,03,18,06,11,6.60
2019,03,18,06,12,6.60
2019,03,18,06,13,6.60
2019,03,18,06,14,6.60
2019,03,18,06,15,6.60
2019,03,18,06,16,6.60
2019,03,18,06,17,6.60
2019,03,18,06,18,6.60
2019,03,18,06,19,6.60
2019,03,18,06,20,6.50
2019,03,18,06,21,6.50
2019,03,18,06,22,6.50
2019,03,18,06,23,6.50
2019,03,18,06,24,6.50
2019,03,18,06,25,6.60
2019,03,18,06,26,6.50
2019,03,18,06,27,6.50
2019,03,18,06,28,6.40
2019,03,18,06,29,6.40
2019,03,18,06,30,6.40
2019,03,18,06,31,6.40
2019,03,18,06,32,6.30
2019,03,18,06,33,6.30
2019,03,18,06,34,6.30
2019,03,18,06,35,6.30
2019,03,18,06,36,6.30
2019,03,18,06,37,6.30
2019,03,18,06,38,6.30
2019,03,18,06,39,6.30
2019,03,18,06,40,6.30
2019,03,18,06,41,6.30
2019,03,18,06,42,6.30
2019,03,18,06,43,6.30
2019,03,18,06,44,6.30
2019,03,18,06,45,6.30
2019,03,18,06,46,6.30
2019,03,18,06,47,6.30
2019,03,18,06,48,6.30
2019,03,18,06,49,6.30
2019,03,18,06,50,6.30
2019,03,18,06,51,6.30
2019,03,18,06,52,6.30
2019,03,18,06,53,6.30
2019,03,18,06,54,6.20
2019,03,18,06,55,6.30
2019,03,18,06,56,6.30
2019,03,18,06,57,6.20
2019,03,18,06,58,6.20
2019,03,18,06,59,6.10
2019,03,18,07,00,6.10
2019,03,18,07,01,6.10
2019,03,18,07,02,6.10
2019,03,18,07,03,6.10
2019,03,18,07,04,6.00
2019,03,18,07,05,6.00
2019,03,18,07,06,6.00
2019,03,18,07,07,6.00
2019,03,18,07,08,6.00
2019,03,18,07,09,6.00
2019,03,18,07,10,6.00
2019,03,18,07,11,6.00
2019,03,18,07,12,6.00
2019,03,18,07,13,6.00
2019,03,18,07,14,6.00
2019,03,18,07,15,6.00
2019,03,18,07,16,6.00
2019,03,18,07,17,6.00
2019,03,18,07,18,6.00
2019,03,18,07,19,6.00
2019,03,18,07,20,6.00
2019,03,18,07,21,6.00
2019,03,18,07,22,5.90
2019,03,18,07,23,6.00
2019,03,18,07,24,5.90
2019,03,18,07,25,5.90
2019,03,18,07,26,5.90
2019,03,18,07,27,5.90
2019,03,18,07,28,5.90
2019,03,18,07,29,5.90
2019,03,18,07,30,5.90
2019,03,18,07,31,5.90
2019,03,18,07,32,5.90
2019,03,18,07,33,5.90
2019,03,18,07,34,5.90
2019,03,18,07,35,5.90
2019,03,18,07,36,5.90
2019,03,18,07,37,6.00
2019,03,18,07,38,6.00
2019,03,18,07,39,6.00
2019,03,18,07,40,6.00
2019,03,18,07,41,6.00
2019,03,18,07,42,6.00
2019,03,18,07,43,6.00
2019,03,18,07,44,6.10
2019,03,18,07,45,6.10
2019,03,18,07,46,6.10
2019,03,18,07,47,6.10
2019,03,18,07,48,6.20
2019,03,18,07,49,6.20
2019,03,18,07,50,6.20
2019,03,18,07,51,6.20
2019,03,18,07,52,6.20
2019,03,18,07,53,6.20
2019,03,18,07,54,6.20
2019,03,18,07,55,6.20
2019,03,18,07,56,6.30
2019,03,18,07,57,6.30
2019,03,18,07,58,6.30
2019,03,18,07,59,6.30
2019,03,18,08,00,6.30
2019,03,18,08,01,6.30
2019,03,18,08,02,6.30
2019,03,18,08,03,6.30
2019,03,18,08,04,6.30
2019,03,18,08,05,6.30
2019,03,18,08,06,6.40
2019,03,18,08,07,6.40
2019,03,18,08,08,6.40
2019,03,18,08,09,6.40
2019,03,18,08,10,6.50
2019,03,18,08,11,6.50
2019,03,18,08,12,6.50
2019,03,18,08,13,6.60
2019,03,18,08,14,6.60
2019,03,18,08,15,6.60
2019,03,18,08,16,6.70
2019,03,18,08,17,6.70
2019,03,18,08,18,6.70
2019,03,18,08,19,6.70
2019,03,18,08,20,6.70
2019,03,18,08,21,6.80
2019,03,18,08,22,6.80
2019,03,18,08,23,6.80
2019,03,18,08,24,6.80
2019,03,18,08,25,6.80
2019,03,18,08,26,6.90
2019,03,18,08,27,6.90
2019,03,18,08,28,6.90
2019,03,18,08,29,6.90
2019,03,18,08,30,6.90
2019,03,18,08,31,6.90
2019,03,18,08,32,6.90
2019,03,18,08,33,7.00
2019,03,18,08,34,7.00
2019,03,18,08,35,7.00
2019,03,18,08,36,7.00
2019,03,18,08,37,7.00
2019,03,18,08,38,7.00
2019,03,18,08,39,7.00
2019,03,18,08,40,7.00
2019,03,18,08,41,7.10
2019,03,18,08,42,7.10
2019,03,18,08,43,7.10
2019,03,18,08,44,7.10
2019,03,18,08,45,7.10
2019,03,18,08,46,7.10
2019,03,18,08,47,7.10
2019,03,18,08,48,7.10
2019,03,18,08,49,7.20
2019,03,18,08,50,7.20
2019,03,18,08,51,7.20
2019,03,18,08,52,7.20
2019,03,18,08,53,7.20
2019,03,18,08,54,7.30
2019,03,18,08,55,7.30
2019,03,18,08,56,7.30
2019,03,18,08,57,7.30
2019,03,18,08,58,7.40
2019,03,18,08,59,7.40
2019,03,18,09,00,7.50
2019,03,18,09,01,7.50
2019,03,18,09,02,7.50
2019,03,18,09,03,7.60
2019,03,18,09,04,7.70
2019,03,18,09,05,7.90
2019,03,18,09,06,8.10
2019,03,18,09,07,8.20
2019,03,18,09,08,8.20
2019,03,18,09,09,8.40
2019,03,18,09,10,8.40
2019,03,18,09,11,8.50
2019,03,18,09,12,8.60
2019,03,18,09,13,8.60
2019,03,18,09,14,8.60
2019,03,18,09,15,8.60
2019,03,18,09,16,8.60
2019,03,18,09,17,8.70
2019,03,18,09,18,8.70
2019,03,18,09,19,8.60
2019,03,18,09,20,8.60
2019,03,18,09,21,8.60
2019,03,18,09,22,8.60
2019,03,18,09,23,8.60
2019,03,18,09,24,8.60
2019,03,18,09,25,8.50
2019,03,18,09,26,8.50
2019,03,18,09,27,8.50
2019,03,18,09,28,8.50
2019,03,18,09,29,8.50
2019,03,18,09,30,8.50
2019,03,18,09,31,8.50
2019,03,18,09,32,8.50
2019,03,18,09,33,8.50
2019,03,18,09,34,8.50
2019,03,18,09,35,8.50
2019,03,18,09,36,8.50
2019,03,18,09,37,8.60
2019,03,18,09,38,8.70
2019,03,18,09,39,8.80
2019,03,18,09,40,8.80
2019,03,18,09,41,8.90
2019,03,18,09,42,8.90
2019,03,18,09,43,9.00
2019,03,18,09,44,9.10
2019,03,18,09,45,9.10
2019,03,18,09,46,9.20
2019,03,18,09,47,9.20
2019,03,18,09,48,9.30
2019,03,18,09,49,9.30
2019,03,18,09,50,9.40
2019,03,18,09,51,9.50
2019,03,18,09,52,9.60
2019,03,18,09,53,9.70
2019,03,18,09,54,9.80
2019,03,18,09,55,9.90
2019,03,18,09,56,10.00
2019,03,18,09,57,10.10
2019,03,18,09,58,10.20
2019,03,18,09,59,10.20
2019,03,18,10,00,10.30
2019,03,18,10,01,10.40
2019,03,18,10,02,10.60
2019,03,18,10,03,10.80
2019,03,18,10,04,11.10
2019,03,18,10,05,11.30
2019,03,18,10,06,11.60
2019,03,18,10,07,11.90
2019,03,18,10,08,12.20
2019,03,18,10,09,12.40
2019,03,18,10,10,12.70
2019,03,18,10,11,12.90
2019,03,18,10,12,13.00
2019,03,18,10,13,13.10
2019,03,18,10,14,13.10
2019,03,18,10,15,13.20
2019,03,18,10,16,13.20
2019,03,18,10,17,13.30
2019,03,18,10,18,13.40
2019,03,18,10,19,13.50
2019,03,18,10,20,13.60
2019,03,18,10,21,13.70
2019,03,18,10,22,13.80
2019,03,18,10,23,14.00
2019,03,18,10,24,14.10
2019,03,18,10,25,14.20
2019,03,18,10,26,14.30
2019,03,18,10,27,14.40
2019,03,18,10,28,14.50
2019,03,18,10,29,14.60
2019,03,18,10,30,14.70
2019,03,18,10,31,14.80
2019,03,18,10,32,14.80
2019,03,18,10,33,14.80
2019,03,18,10,34,14.80
2019,03,18,10,35,14.80
2019,03,18,10,36,14.80
2019,03,18,10,37,14.80
2019,03,18,10,38,14.80
2019,03,18,10,39,14.80
2019,03,18,10,40,14.90
2019,03,18,10,41,15.00
2019,03,18,10,42,15.10
2019,03,18,10,43,15.20
2019,03,18,10,44,15.30
2019,03,18,10,45,15.30
2019,03,18,10,46,15.40
2019,03,18,10,47,15.40
2019,03,18,10,48,15.40
2019,03,18,10,49,15.40
2019,03,18,10,50,15.40
2019,03,18,10,51,15.30
2019,03,18,10,52,15.30
2019,03,18,10,53,15.20
2019,03,18,10,54,15.30
2019,03,18,10,55,15.30
2019,03,18,10,56,15.30
2019,03,18,10,57,15.40
2019,03,18,10,58,15.40
2019,03,18,10,59,15.40
2019,03,18,11,00,15.40
2019,03,18,11,01,15.50
2019,03,18,11,02,15.50
2019,03,18,11,03,15.50
2019,03,18,11,04,15.60
2019,03,18,11,05,15.60
2019,03,18,11,06,15.60
2019,03,18,11,07,15.70
2019,03,18,11,08,15.80
2019,03,18,11,09,15.80
2019,03,18,11,10,15.80
2019,03,18,11,11,15.70
2019,03,18,11,12,15.70
2019,03,18,11,13,15.60
2019,03,18,11,14,15.60
2019,03,18,11,15,15.60
2019,03,18,11,16,15.60
2019,03,18,11,17,15.60
2019,03,18,11,18,15.60
2019,03,18,11,19,15.70
2019,03,18,11,20,15.80
2019,03,18,11,21,15.80
2019,03,18,11,22,15.80
2019,03,18,11,23,15.90
2019,03,18,11,24,15.90
2019,03,18,11,25,15.90
2019,03,18,11,26,16.00
2019,03,18,11,27,16.10
2019,03,18,11,28,16.20
2019,03,18,11,29,16.20
2019,03,18,11,30,16.20
2019,03,18,11,31,16.20
2019,03,18,11,32,16.20
2019,03,18,11,33,16.20
2019,03,18,11,34,16.20
2019,03,18,11,35,16.20
2019,03,18,11,36,16.20
2019,03,18,11,37,16.20
2019,03,18,11,38,16.20
2019,03,18,11,39,16.20
2019,03,18,11,40,16.20
2019,03,18,11,41,16.30
2019,03,18,11,42,16.30
2019,03,18,11,43,16.30
2019,03,18,11,44,16.40
2019,03,18,11,45,16.50
2019,03,18,11,46,16.50
2019,03,18,11,47,16.60
2019,03,18,11,48,16.70
2019,03,18,11,49,16.80
2019,03,18,11,50,16.90
2019,03,18,11,51,16.90
2019,03,18,11,52,16.90
2019,03,18,11,53,16.90
2019,03,18,11,54,16.80
2019,03,18,11,55,16.80
2019,03,18,11,56,16.80
2019,03,18,11,57,16.90
2019,03,18,11,58,17.00
2019,03,18,11,59,17.00
2019,03,18,12,00,17.10
2019,03,18,12,01,17.10
2019,03,18,12,02,17.10
2019,03,18,12,03,17.10
2019,03,18,12,04,17.00
2019,03,18,12,05,17.00
2019,03,18,12,06,17.00
2019,03,18,12,07,17.00
2019,03,18,12,08,17.00
2019,03,18,12,09,17.10
2019,03,18,12,10,17.10
2019,03,18,12,11,17.10
2019,03,18,12,12,17.10
2019,03,18,12,13,17.10
2019,03,18,12,14,17.10
2019,03,18,12,15,17.10
2019,03,18,12,16,17.10
2019,03,18,12,17,17.10
2019,03,18,12,18,17.20
2019,03,18,12,19,17.30
2019,03,18,12,20,17.30
2019,03,18,12,21,17.30
2019,03,18,12,22,17.40
2019,03,18,12,23,17.40
2019,03,18,12,24,17.50
2019,03,18,12,25,17.50
2019,03,18,12,26,17.60
2019,03,18,12,27,17.60
2019,03,18,12,28,17.60
2019,03,18,12,29,17.50
2019,03,18,12,30,17.50
2019,03,18,12,31,17.40
2019,03,18,12,32,17.40
2019,03,18,12,33,17.40
2019,03,18,12,34,17.40
2019,03,18,12,35,17.50
2019,03,18,12,36,17.60
2019,03,18,12,37,17.70
2019,03,18,12,38,17.80
2019,03,18,12,39,17.80
2019,03,18,12,40,17.90
2019,03,18,12,41,18.00
2019,03,18,12,42,18.00
2019,03,18,12,43,18.00
2019,03,18,12,44,18.00
2019,03,18,12,45,18.00
2019,03,18,12,46,18.10
2019,03,18,12,47,18.20
2019,03,18,12,48,18.30
2019,03,18,12,49,18.30
2019,03,18,12,50,18.30
2019,03,18,12,51,18.40
2019,03,18,12,52,18.40
2019,03,18,12,53,18.30
2019,03,18,12,54,18.30
2019,03,18,12,55,18.20
2019,03,18,12,56,18.20
2019,03,18,12,57,18.20
2019,03,18,12,58,18.20
2019,03,18,12,59,18.20
2019,03,18,13,00,18.20
2019,03,18,13,01,18.20
2019,03,18,13,02,18.20
2019,03,18,13,03,18.20
2019,03,18,13,04,18.30
2019,03,18,13,05,18.40
2019,03,18,13,06,18.40
2019,03,18,13,07,18.40
2019,03,18,13,08,18.50
2019,03,18,13,09,18.60
2019,03,18,13,10,18.70
2019,03,18,13,11,18.70
2019,03,18,13,12,18.70
2019,03,18,13,13,18.70
2019,03,18,13,14,18.70
2019,03,18,13,15,18.80
2019,03,18,13,16,18.80
2019,03,18,13,17,18.90
2019,03,18,13,18,18.90
2019,03,18,13,19,18.90
2019,03,18,13,20,18.90
2019,03,18,13,21,18.90
2019,03,18,13,22,19.00
2019,03,18,13,23,18.90
2019,03,18,13,24,18.90
2019,03,18,13,25,18.90
2019,03,18,13,26,19.00
2019,03,18,13,27,19.00
2019,03,18,13,28,19.10
2019,03,18,13,29,19.20
2019,03,18,13,30,19.30
2019,03,18,13,31,19.20
2019,03,18,13,32,19.20
2019,03,18,13,33,19.20
2019,03,18,13,34,19.20
2019,03,18,13,35,19.30
2019,03,18,13,36,19.30
2019,03,18,13,37,19.30
2019,03,18,13,38,19.30
2019,03,18,13,39,19.20
2019,03,18,13,40,19.30
2019,03,18,13,41,19.30
2019,03,18,13,42,19.20
2019,03,18,13,43,19.20
2019,03,18,13,44,19.30
2019,03,18,13,45,19.40
2019,03,18,13,46,19.60
2019,03,18,13,47,19.70
2019,03,18,13,48,19.70
2019,03,18,13,49,19.80
2019,03,18,13,50,19.80
2019,03,18,13,51,19.80
2019,03,18,13,52,19.70
2019,03,18,13,53,19.50
2019,03,18,13,54,19.40
2019,03,18,13,55,19.40
2019,03,18,13,56,19.50
2019,03,18,13,57,19.60
2019,03,18,13,58,19.70
2019,03,18,13,59,19.70
2019,03,18,14,00,19.80
2019,03,18,14,01,19.90
2019,03,18,14,02,19.90
2019,03,18,14,03,20.00
2019,03,18,14,04,20.10
2019,03,18,14,05,20.00
2019,03,18,14,06,19.80
2019,03,18,14,07,19.70
2019,03,18,14,08,19.70
2019,03,18,14,09,19.80
2019,03,18,14,10,19.80
2019,03,18,14,11,19.80
2019,03,18,14,12,19.70
2019,03,18,14,13,19.80
2019,03,18,14,14,19.80
2019,03,18,14,15,19.90
2019,03,18,14,16,20.00
2019,03,18,14,17,20.10
2019,03,18,14,18,20.10
2019,03,18,14,19,20.10
2019,03,18,14,20,20.20
2019,03,18,14,21,20.20
2019,03,18,14,22,20.10
2019,03,18,14,23,20.10
2019,03,18,14,24,20.20
2019,03,18,14,25,20.20
2019,03,18,14,26,20.30
2019,03,18,14,27,20.30
2019,03,18,14,28,20.30
2019,03,18,14,29,20.30
2019,03,18,14,30,20.40
2019,03,18,14,31,20.50
2019,03,18,14,32,20.50
2019,03,18,14,33,20.50
2019,03,18,14,34,20.40
2019,03,18,14,35,20.30
2019,03,18,14,36,20.40
2019,03,18,14,37,20.40
2019,03,18,14,38,20.30
2019,03,18,14,39,20.20
2019,03,18,14,40,20.20
2019,03,18,14,41,20.20
2019,03,18,14,42,20.30
2019,03,18,14,43,20.50
2019,03,18,14,44,20.60
2019,03,18,14,45,20.70
2019,03,18,14,46,20.70
2019,03,18,14,47,20.80
2019,03,18,14,48,20.90
2019,03,18,14,49,20.90
2019,03,18,14,50,20.90
2019,03,18,14,51,20.80
2019,03,18,14,52,20.80
2019,03,18,14,53,20.90
2019,03,18,14,54,20.90
2019,03,18,14,55,20.90
2019,03,18,14,56,20.70
2019,03,18,14,57,20.60
2019,03,18,14,58,20.60
2019,03,18,14,59,20.60
2019,03,18,15,00,20.70
2019,03,18,15,01,20.70
2019,03,18,15,02,20.70
2019,03,18,15,03,20.80
2019,03,18,15,04,20.80
2019,03,18,15,05,20.80
2019,03,18,15,06,20.70
2019,03,18,15,07,20.60
2019,03,18,15,08,20.50
2019,03,18,15,09,20.40
2019,03,18,15,10,20.50
2019,03,18,15,11,20.50
2019,03,18,15,12,20.60
2019,03,18,15,13,20.60
2019,03,18,15,14,20.70
2019,03,18,15,15,20.80
2019,03,18,15,16,20.90
2019,03,18,15,17,21.00
2019,03,18,15,18,21.00
2019,03,18,15,19,21.00
2019,03,18,15,20,21.10
2019,03,18,15,21,21.10
2019,03,18,15,22,21.20
2019,03,18,15,23,21.20
2019,03,18,15,24,21.20
2019,03,18,15,25,21.00
2019,03,18,15,26,20.90
2019,03,18,15,27,20.90
2019,03,18,15,28,20.90
2019,03,18,15,29,21.00
2019,03,18,15,30,21.00
2019,03,18,15,31,21.00
2019,03,18,15,32,20.90
2019,03,18,15,33,20.90
2019,03,18,15,34,20.80
2019,03,18,15,35,20.80
2019,03,18,15,36,20.80
2019,03,18,15,37,20.80
2019,03,18,15,38,20.90
2019,03,18,15,39,21.00
2019,03,18,15,40,21.00
2019,03,18,15,41,21.10
2019,03,18,15,42,21.10
2019,03,18,15,43,21.00
2019,03,18,15,44,21.00
2019,03,18,15,45,21.00
2019,03,18,15,46,20.90
2019,03,18,15,47,20.90
2019,03,18,15,48,20.90
2019,03,18,15,49,20.90
2019,03,18,15,50,20.90
2019,03,18,15,51,20.90
2019,03,18,15,52,21.00
2019,03,18,15,53,20.90
2019,03,18,15,54,20.90
2019,03,18,15,55,20.90
2019,03,18,15,56,20.90
2019,03,18,15,57,20.90
2019,03,18,15,58,20.90
2019,03,18,15,59,21.00
2019,03,18,16,00,21.00
2019,03,18,16,01,21.00
2019,03,18,16,02,20.90
2019,03,18,16,03,20.90
2019,03,18,16,04,20.90
2019,03,18,16,05,20.80
2019,03,18,16,06,20.70
2019,03,18,16,07,20.70
2019,03,18,16,08,20.60
2019,03,18,16,09,20.60
2019,03,18,16,10,20.50
2019,03,18,16,11,20.40
2019,03,18,16,12,20.40
2019,03,18,16,13,20.50
2019,03,18,16,14,20.60
2019,03,18,16,15,20.70
2019,03,18,16,16,20.80
2019,03,18,16,17,20.80
2019,03,18,16,18,20.80
2019,03,18,16,19,20.80
2019,03,18,16,20,20.70
2019,03,18,16,21,20.70
2019,03,18,16,22,20.60
2019,03,18,16,23,20.60
2019,03,18,16,24,20.60
2019,03,18,16,25,20.60
2019,03,18,16,26,20.60
2019,03,18,16,27,20.60
2019,03,18,16,28,20.70
2019,03,18,16,29,20.70
2019,03,18,16,30,20.70
2019,03,18,16,31,20.80
2019,03,18,16,32,20.80
2019,03,18,16,33,20.90
2019,03,18,16,34,20.80
2019,03,18,16,35,20.90
2019,03,18,16,36,20.90
2019,03,18,16,37,21.00
2019,03,18,16,38,21.00
2019,03,18,16,39,21.00
2019,03,18,16,40,20.90
2019,03,18,16,41,20.90
2019,03,18,16,42,20.80
2019,03,18,16,43,20.70
2019,03,18,16,44,20.70
2019,03,18,16,45,20.60
2019,03,18,16,46,20.60
2019,03,18,16,47,20.60
2019,03,18,16,48,20.50
2019,03,18,16,49,20.50
2019,03,18,16,50,20.50
2019,03,18,16,51,20.60
2019,03,18,16,52,20.60
2019,03,18,16,53,20.60
2019,03,18,16,54,20.60
2019,03,18,16,55,20.70
2019,03,18,16,56,20.70
2019,03,18,16,57,20.70
2019,03,18,16,58,20.70
2019,03,18,16,59,20.60
2019,03,18,17,00,20.60
2019,03,18,17,01,20.60
2019,03,18,17,02,20.70
2019,03,18,17,03,20.60
2019,03,18,17,04,20.60
2019,03,18,17,05,20.60
2019,03,18,17,06,20.60
2019,03,18,17,07,20.70
2019,03,18,17,08,20.70
2019,03,18,17,09,20.70
2019,03,18,17,10,20.80
2019,03,18,17,11,20.90
2019,03,18,17,12,21.00
2019,03,18,17,13,21.00
2019,03,18,17,14,21.10
2019,03,18,17,15,21.00
2019,03,18,17,16,21.00
2019,03,18,17,17,20.90
2019,03,18,17,18,20.90
2019,03,18,17,19,20.90
2019,03,18,17,20,20.90
2019,03,18,17,21,20.80
2019,03,18,17,22,20.80
2019,03,18,17,23,20.80
2019,03,18,17,24,20.80
2019,03,18,17,25,20.80
2019,03,18,17,26,20.80
2019,03,18,17,27,20.80
2019,03,18,17,28,20.80
2019,03,18,17,29,20.80
2019,03,18,17,30,20.70
2019,03,18,17,31,20.60
2019,03,18,17,32,20.50
2019,03,18,17,33,20.50
2019,03,18,17,34,20.40
2019,03,18,17,35,20.40
2019,03,18,17,36,20.40
2019,03,18,17,37,20.30
2019,03,18,17,38,20.30
2019,03,18,17,39,20.30
2019,03,18,17,40,20.20
2019,03,18,17,41,20.20
2019,03,18,17,42,20.10
2019,03,18,17,43,20.10
2019,03,18,17,44,20.10
2019,03,18,17,45,20.10